Regional Weather Roundup
Issued by NWS

Home | Current Version | Previous Version | Graphics & Text | Print | Product List | Glossary On
Versions: 1 2 3 4 5 6 7 8 9 10 11 12 13 14 15 16 17 18 19 20 21 22 23 24 25 26 27 28 29 30 31 32 33 34 35 36 37 38 39 40 41 42 43 44 45 46 47 48 49 50
000
ASUS43 KLSX 020957
RWRMO

WEATHER SUMMARY FOR MISSOURI
NATIONAL WEATHER SERVICE SPRINGFIELD MO
500 AM CDT MON MAY 02 2016

NOTE: "FAIR" INDICATES FEW OR NO CLOUDS BELOW 12,000 FEET WITH NO
       SIGNIFICANT WEATHER AND/OR OBSTRUCTIONS TO VISIBILITY.
       CURRENT SKY AND/OR WEATHER CONDITIONS ARE NOT AVAILABLE FOR
       CHILLICOTHE AND FARMINGTON.

MOZ001>031-035>038-043-044-053-054-021100-
...NORTHERN AND WESTERN MISSOURI...

CITY           SKY/WX    TMP DP  RH WIND       PRES   REMARKS
KANSAS CTY INT CLOUDY    48  44  86 NW6       30.10F
LEE`S SUMMIT   CLOUDY    48  44  86 NW6       30.10F
ST JOSEPH      CLOUDY    48  45  89 NW6       30.12F
CHILLICOTHE      N/A     49  46  90 CALM      30.10F

$$
MOZ066>068-077>081-088>096-101>105-021100-
...SOUTHWEST MISSOURI...

CITY           SKY/WX    TMP DP  RH WIND       PRES   REMARKS
SPRINGFIELD    CLOUDY    51  46  83 NE3       30.06F

$$
MOZ032>034-039>042-045>050-055>058-069>072-021100-
...CENTRAL MISSOURI...

CITY           SKY/WX    TMP DP  RH WIND       PRES   REMARKS
COLUMBIA       NOT AVBL
JEFFERSON CITY CLOUDY    50  44  80 CALM      30.06F
ROLLA          CLOUDY    48  44  86 N5        30.03F
SEDALIA        CLOUDY    50  46  86 N9        30.08F
WHITEMAN AFB   MOCLDY    48  48 100 N7        30.07F
WARRENSBURG    CLOUDY    48  45  87 NW6       30.09S

$$
MOZ051-052-059>065-021100-
...EAST CENTRAL MISSOURI...

CITY           SKY/WX    TMP DP  RH WIND       PRES   REMARKS
ST LOUIS INTL  CLOUDY    53  46  77 N12       30.02F
SPIRIT OF STL  CLOUDY    52  46  82 NW9G18    30.06S

$$
MOZ072>076-082>087-097>100-106>115-021100-
...SOUTH CENTRAL AND SOUTHEAST MISSOURI...

CITY           SKY/WX    TMP DP  RH WIND       PRES   REMARKS
CAPE GIRARDEAU PTCLDY    54  49  83 N8        30.03S
POPLAR BLUFF   CLEAR     55  48  77 N5        30.04R
WEST PLAINS    CLOUDY    51  43  74 N7        30.05F

$$



USA.gov is the U.S. government's official web portal to all federal, state and local government web resources and services.